Location: Wellington
(41.3000°S, 174.7830°E)
Time: 00:07:36
(UTC+12:00)

Spot 2 Rocket - Pass Details

Date: 24 January 2019
Orbit: 757 x 773 km, 98.6° (Epoch: 21 April)

Event Time Altitude Azimuth Distance (km) Brightness Sun altitude
Rises 23:14:05 0° 172° (S) 3,281 7.5 -21.5°
Reaches altitude 10° 23:16:27 10° 175° (S) 2,345 6.7 -21.7°
Maximum altitude 23:21:29 55° 252° (WSW) 931 4.1 -22.2°
Enters shadow 23:25:03 19° 323° (NW) 1,778 5.2 -22.6°
